{"data":{"norad_id":57134,"intl_designator":"2023-090AK","name":"STARLINK-6133","alt_names":[],"object_type":"PAYLOAD","status":"ACTIVE","operator":null,"country":"US","launch_date":"2023-06-23","launch_site_code":"AFETR","launch_vehicle":null,"mission":null,"orbit_class":"UNKNOWN","rcs_meters":null,"size_class":null,"mass_kg":null,"dimensions":null,"purposes":["comms"],"wikipedia_slug":null,"has_3d_model":false,"image_url":null,"decayed_at":null,"tle_current":{"epoch":"2026-05-25T04:02:44.083392Z","epoch_age_seconds":67213,"freshness":"FRESH","line1":"1 57134U 23090AK  26145.16856578  .00000056  00000+0  11577-4 0  9993","line2":"2 57134  43.0031 191.1109 0001092 296.7787  63.2953 15.27570523162052","mean_motion":15.27570523,"eccentricity":0.0001092,"inclination_deg":43.0031,"raan_deg":191.1109,"arg_perigee_deg":296.7787,"mean_anomaly_deg":63.2953,"bstar":1.1577e-5,"rev_number":16205,"period_min":94.267333541628,"perigee_km":482.32822911317,"apogee_km":483.82671835423,"semimajor_km":6861.2144737337,"source":"CELESTRAK","updated_at":"2026-05-25T13:38:18.246312Z"}}}